User: anonymous   Login
Location: Unspecified
(0.0000°N, 0.0000°E)
Time: 10:28:36
(UTC+00:00)
Language:

USA 176 - Orbit

View from above orbital plane
View from above orbital plane
View from above satellite
View from above satellite

Ground track
Ground track

The orbit data is extracted from the following two-line orbital elements,

1 28158U 04004A   16160.23826728 0.00000000  00000-0  00000-0 0    07
2 28158   7.1941  48.3760 0002000 322.4745  37.4938  1.00270000    09
Epoch (UTC): 08 June 2016 05:43:06
Eccentricity: 0.0002000
inclination: 7.1941°
perigee height: 35778 km
apogee height: 35795 km
right ascension of ascending node: 48.3760°
argument of perigee: 322.4745°
revolutions per day: 1.00270000
mean anomaly at epoch: 37.4938°
orbit number at epoch: 0

The dashed part of the orbit path shows where the satellite is in the earth's shadow,  

DLR